SHIJIAN-6 02B (SJ-6 02B)

Last updated on Mon Oct 20 2025 00:03:35 GMT+0000 (Coordinated Universal Time)

1 29506U 06046B 25292.26824105 .00002803 00000+0 22828-3 0 9993 2 29506 97.6922 318.4823 0012998 139.6139 220.6052 15.00268550 34601
UTC large
Height (km)
Speed (km/s)
/
Latitude / Longitude
Inclination (degrees)
Orbital Period (minutes)
Azimuth
Elevation
Range (km)
Doppler Factor

Next 0 passes for location: London (51.5072 / 0.1276)

Sorry there are no passes over London.